Location: Bs. As. Argentina
(34.6000°S, 58.6333°W)
Time: 00:54:46
(UTC-03:00)

ISS - Visible Passes

Search period start: 18 September 2024 00:00
Search period end: 28 September 2024 00:00
Orbit: 414 x 424 km, 51.6° (Epoch: 18 September)

Date Brightness Start Highest point End Pass type
(mag) Time Alt. Az. Time Alt. Az. Time Alt. Az.
18 Sep -3.8 05:32:06 39° NW 05:33:16 84° SW 05:36:43 10° SE visible
19 Sep -2.1 04:46:41 34° E 04:46:41 34° E 04:48:57 10° ESE visible
19 Sep -1.8 06:20:09 10° WSW 06:22:36 18° SSW 06:25:03 10° SSE visible
20 Sep -2.5 05:34:05 25° SW 05:34:43 27° SW 05:37:44 10° SSE visible
21 Sep -1.8 04:48:24 26° SSE 04:48:24 26° SSE 04:50:14 10° SE visible
22 Sep -1.4 05:35:34 12° SW 05:36:21 13° SSW 05:37:58 10° S visible
23 Sep -1.2 04:49:41 15° S 04:49:41 15° S 04:50:50 10° SSE visible
